GW2249 Weather Reports


Display with metric or nautical units.
time (UTC)temp
F
wind
direction
speed
MPH
gust
MPH
rain 1hr
in
rain 24hr
in
rain mn
in
humidity
%
barometer
mb
20260906111555 68 0 0.0 0.0 0.00 0.13 0.00 97 1014.3
20260906110056 68 0 0.0 0.0 0.00 0.13 0.00 96 1014.3
20260906104600 69 0 0.0 0.0 0.00 0.13 0.00 97 1014.1
20260906103056 69 0 0.0 2.0 0.00 0.13 0.00 96 1014.0
20260906101559 69 0 0.0 0.0 0.00 0.13 0.00 96 1013.9
20260906100100 69 0 0.0 0.0 0.00 0.13 0.00 96 1014.0
20260906094607 70 0 0.0 2.0 0.00 0.13 0.00 96 1014.1
20260906093101 70 0 0.0 1.0 0.00 0.13 0.00 96 1014.0
20260906091557 71 0 0.0 4.0 0.00 0.13 0.00 97 1014.0
20260906084603 70 0 0.0 0.0 0.00 0.13 0.00 96 1013.8
20260906083057 71 0 0.0 0.0 0.00 0.13 0.00 96 1013.9
20260906081600 71 0 0.0 0.0 0.00 0.13 0.00 95 1013.8
20260906080100 71 0 0.0 1.0 0.00 0.13 0.00 95 1013.8
20260906074559 72 0 0.0 2.0 0.00 0.13 0.00 95 1013.9
20260906073057 72 0 0.0 4.0 0.00 0.13 0.00 96 1014.1
20260906071557 72 103 2.0 4.0 0.00 0.13 0.00 95 1014.0
20260906070057 72 44 2.0 7.0 0.00 0.13 0.00 95 1014.1
20260906064554 72 0 1.0 5.0 0.00 0.13 0.00 95 1014.3
20260906063058 72 0 0.0 4.0 0.00 0.13 0.00 95 1014.0
20260906061602 72 0 0.0 3.0 0.00 0.13 0.00 95 1014.1
20260906060104 73 200 0.0 2.0 0.00 0.13 0.00 95 1014.1
20260906054557 73 0 0.0 2.0 0.01 0.13 0.00 94 1014.4
20260906053057 73 202 1.0 4.0 0.13 0.13 0.00 94 1014.7
20260906051558 74 126 2.0 4.0 0.13 0.13 0.00 93 1015.6
20260906050055 74 294 0.0 4.0 0.13 0.13 0.00 93 1015.7
20260906044552 76 186 1.0 7.0 0.12 0.12 0.12 89 1015.8
20260906043056 78 142 2.0 5.0 0.00 0.00 0.00 84 1015.3
20260906041557 76 0 2.0 11.0 0.00 0.00 0.00 88 1014.9
20260906040059 75 0 0.0 0.0 0.00 0.00 0.00 91 1014.3
20260906034600 74 0 0.0 0.0 0.00 0.00 0.00 90 1014.6
20260906033104 75 0 0.0 0.0 0.00 0.00 0.00 90 1014.6
20260906031604 75 0 0.0 0.0 0.00 0.00 0.00 89 1014.0
20260906030101 75 0 0.0 0.0 0.00 0.00 0.00 88 1014.0
20260906024556 76 0 0.0 2.0 0.00 0.00 0.00 88 1014.1
20260906023100 76 0 0.0 1.0 0.00 0.00 0.00 87 1013.9
20260906021603 77 0 0.0 1.0 0.00 0.00 0.00 85 1013.8
20260906014611 79 0 0.0 2.0 0.00 0.00 0.00 82 1013.0
20260906013100 80 198 0.0 2.0 0.00 0.00 0.00 80 1013.1
20260906011619 81 0 0.0 0.0 0.00 0.00 0.00 78 1013.1
20260906010056 82 0 0.0 2.0 0.00 0.00 0.00 76 1013.2
20260906004558 82 0 0.0 8.0 0.00 0.00 0.00 75 1013.4
20260906003056 81 183 0.0 2.0 0.00 0.00 0.00 80 1013.2
20260906001600 82 0 0.0 2.0 0.00 0.00 0.00 78 1013.2
20260906000101 83 0 0.0 2.0 0.00 0.00 0.00 75 1013.1
20260905234558 85 0 1.0 2.0 0.00 0.00 0.00 71 1013.1
20260905233118 87 78 0.0 6.0 0.00 0.00 0.00 68 1012.7
20260905231557 88 0 1.0 4.0 0.00 0.00 0.00 63 1012.7
20260905224612 90 96 2.0 5.0 0.00 0.00 0.00 60 1012.8
20260905223105 91 40 4.0 10.0 0.00 0.00 0.00 59 1013.1
20260905221553 92 107 2.0 7.0 0.00 0.00 0.00 56 1013.2
20260905220104 93 73 1.0 4.0 0.00 0.00 0.00 57 1013.0
20260905214556 93 58 2.0 5.0 0.00 0.00 0.00 56 1013.0
20260905213102 93 115 1.0 9.0 0.00 0.00 0.00 56 1013.1
20260905211603 93 111 1.0 9.0 0.00 0.00 0.00 57 1013.1
20260905210058 94 122 2.0 9.0 0.00 0.00 0.00 55 1013.3
20260905204603 93 88 1.0 7.0 0.00 0.00 0.00 56 1013.2
20260905203105 92 175 0.0 5.0 0.00 0.00 0.00 55 1013.3
20260905201611 92 128 1.0 7.0 0.00 0.00 0.00 56 1013.6
20260905200107 92 31 1.0 4.0 0.00 0.00 0.00 58 1013.5
20260905194601 93 208 2.0 9.0 0.00 0.00 0.00 57 1013.8
20260905193101 93 55 4.0 15.0 0.00 0.00 0.00 55 1013.9
20260905191558 96 194 2.0 6.0 0.00 0.00 0.00 55 1014.1
20260905190138 96 286 2.0 8.0 0.00 0.00 0.00 53 1014.2
20260905184622 97 300 2.0 7.0 0.00 0.00 0.00 53 1014.2
20260905183101 96 187 4.0 8.0 0.00 0.00 0.00 56 1014.4
20260905181600 94 106 3.0 7.0 0.00 0.00 0.00 55 1014.7
20260905180056 95 205 3.0 6.0 0.00 0.00 0.00 54 1015.0
20260905174601 95 142 1.0 7.0 0.00 0.00 0.00 56 1015.0
20260905173059 95 84 4.0 9.0 0.00 0.00 0.00 56 1015.1
20260905171558 94 5 2.0 7.0 0.00 0.00 0.00 58 1015.2
20260905170104 93 63 2.0 9.0 0.00 0.00 0.00 62 1015.6
20260905164559 92 82 2.0 6.0 0.00 0.00 0.00 64 1015.7
20260905163105 90 42 2.0 4.0 0.00 0.00 0.00 68 1015.9
20260905161557 88 196 1.0 4.0 0.00 0.00 0.00 71 1016.2
20260905160057 86 352 2.0 6.0 0.00 0.00 0.00 74 1016.2
20260905154606 85 211 1.0 4.0 0.00 0.00 0.00 78 1016.4
20260905153102 84 0 0.0 3.0 0.00 0.00 0.00 79 1016.4
20260905151558 82 0 0.0 2.0 0.00 0.00 0.00 82 1016.4
20260905150100 82 0 0.0 4.0 0.00 0.00 0.00 84 1016.5
20260905144558 82 0 0.0 1.0 0.00 0.00 0.00 86 1016.6
20260905143100 81 0 0.0 2.0 0.00 0.00 0.00 86 1016.6
20260905141630 80 0 1.0 3.0 0.00 0.00 0.00 88 1016.7
20260905134559 76 148 1.0 3.0 0.00 0.00 0.00 96 1016.5
20260905133058 74 0 0.0 3.0 0.00 0.00 0.00 97 1016.7
20260905131615 73 0 0.0 1.0 0.00 0.00 0.00 97 1016.8
20260905130116 72 0 0.0 2.0 0.00 0.00 0.00 97 1016.7
20260905124600 72 0 0.0 0.0 0.00 0.00 0.00 98 1016.9
20260905123110 71 0 0.0 0.0 0.00 0.00 0.00 98 1016.8
20260905121557 70 0 0.0 0.0 0.00 0.00 0.00 97 1016.7
20260905120058 69 0 0.0 0.0 0.00 0.00 0.00 97 1016.7
20260905114553 69 0 0.0 0.0 0.00 0.00 0.00 97 1016.6
20260905113112 69 0 0.0 0.0 0.00 0.00 0.00 97 1016.2